Location: Ripley
(48.3812°N, 115.4473°W)
Time: 22:29:39
(UTC+00:00)

CAS-6 - Pass Details

Date: 01 July 2022
Orbit: 613 x 634 km, 97.9° (Epoch: 16 August)

Event Time Altitude Azimuth Distance (km) Brightness Sun altitude
Exits shadow 07:03:44 13° 232° (SW) 1,823 ? -17.9°
Maximum altitude 07:06:04 18° 269° (W) 1,525 ? -18.0°
Drops below altitude 10° 07:09:07 10° 313° (NW) 2,005 ? -18.0°
Sets 07:11:55 0° 333° (NNW) 2,913 ? -18.1°
